STARLINK-33811, 63504

Orbit data source: Space-Track

STARLINK-33811, 63504 is a payload satellite owned by SpaceX/Seattle (US) in LEO that was launched on Mon, 07 Apr 2025 UTC via an FALCON 9 launch vehicle from the Air Force Western Test Range (AFWTR). Payload-class satellites include a variety of spacecraft equipped with specific instruments for various scientific and technological missions. These include communications satellites like Starlink; space stations such as the ISS; scientific satellites like the Hubble; Earth observation satellites from companies like Planet Labs, Umbra, and HawkEye 360; GPS; miniature CubeSats for education and research; and military/defense satellites.

Loading next visibility...
Identifier
63504, 2025-071M
Orbit
LEO
Country
Flag of USUS
Related business
Manufacturer
SpaceX/Seattle
Mission
Operational Commercial Communications
Bus & Motor
STARLINK V2MO, Unknown motor
Mass
575 kg wet, ~530 kg dry
Launch date (UTC)
2025-04-07 (1 year ago)
Launch vehicle
FALCON 9
Launch site
Air Force Western Test Range (AFWTR)
Object type
Payload
Rocket body
Debris
Shape & HBR
Box + 2 Pan, 17.7 m
Radar Cross Section
36.964 m², Large (>1 m²)

Expand to show TLE details & history
Last TLE update: 7 hours ago

TLE from 7 hours ago
0 STARLINK-33811
1 63504U 25071M   26168.80744654  .00021662  00000-0  74097-3 0  9991
2 63504  53.1605  35.2212 0001255  83.1416 276.9728 15.30216513 68036
Epoch: 2026-06-17T19:22Z
TLE epoch observation values (Epoch: 2026-06-17T19:22:43.381Z)
Latitude
0.00004°
Longitude
-161.51935°
Altitude
475.961 km
Speed
7.629 km/s
True Right ascension
02h 20m 53s
True Declination
0° 00' 00"
Sunlit
Object was in daylight at epoch
Visualization orbit readout
Latitude
Unknown
Longitude
Unknown
Altitude
Unknown
Speed
Unknown
Apparent Right ascension
Unknown
Apparent Declination
Unknown
Sunlit
N/A
Visualization observer readout
Local Sidereal Time
12:45:08
Azimuth
Unknown
Elevation
Unknown
Doppler factor
Unknown
Orbital elements
Apogee altitude
476.282 km
Perigee altitude
474.562 km
Semi-major axis
6,853.559 km
Eccentricity
0.00013
Inclination
53.1605°
RAAN
35.2212°
Arg. of periapsis
83.1416°
True anomaly
276.95852°
Mean anomaly
276.9728°
Eccentric anomaly
276.96566°
Mean motion
3.82533 °/min
Orbital period
94.11 mins
BSTAR
0.00074097
Loading maneuver chart data...
Computing Atmospheric mass density...
Loading historical data...
Loading historical data...
Loading historical data...
Loading historical data...
Loading historical data...
Loading historical data...
Loading historical data...

Documentation

Showing up to 5 results
|